Regional Weather Roundup
Issued by NWS

Home | Current Version | Previous Version | Text Only | Print | Product List | Glossary Off
Versions: 1 2 3 4 5 6 7 8 9 10 11 12 13 14 15 16 17 18 19 20 21 22 23 24 25 26 27 28 29 30 31 32 33 34 35 36 37 38 39 40 41 42 43 44 45 46 47 48 49 50

846
ASUS45 KBOU 282307
RWRCO

WEATHER ROUNDUP FOR COLORADO
NATIONAL WEATHER SERVICE DENVER/BOULDER CO
500 PM MDT SAT MAY 28 2016

NOTE: "FAIR" INDICATES FEW OR NO CLOUDS BELOW 12000 FEET WITH NO
SIGNIFICANT WEATHER AND/OR OBSTRUCTIONS TO VISIBILITY.

COZ001>005-013-030-031-290000-
...NORTHWEST COLORADO...

CITY           SKY/WX    TMP DP  RH WIND       PRES   REMARKS
CRAIG          FAIR      67  37  33 W8        30.08S
HAYDEN         FAIR      64  30  27 NW12G21   30.10R
MEEKER         PTSUNNY   66  32  28 S6        30.09S
MOUNT WERNER   NOT AVBL
STEAMBOAT SPGS FAIR      63  31  29 W16G22    30.10S
WALDEN         NOT AVBL
$$

COZ006>008-011-290000-
...WEST CENTRAL VALLEYS...

CITY           SKY/WX    TMP DP  RH WIND       PRES   REMARKS
GRAND JUNCTION FAIR      75  33  21 VRB3      30.00S
MONTROSE       FAIR      72  27  18 VRB5      30.07F
EAGLE          PTSUNNY   66  30  26 NW13      30.11S
RIFLE          FAIR      70  33  25 N16G26    30.06R
DELTA          FAIR      78  24  13 CALM      30.03F
NUCLA          FAIR      73  23  15 N8        30.10S
$$

COZ017>023-064>068-290000-
...SOUTHWEST COLORADO...

CITY           SKY/WX    TMP DP  RH WIND       PRES   REMARKS
DURANGO        FAIR      69  21  16 W3        30.10F
CORTEZ         FAIR      72  23  16 VRB3      30.06F
PAGOSA SPRINGS FAIR      65  27  24 NW8       30.19S
TELLURIDE      PTSUNNY   55  32  41 SE14      30.27R
WOLF CREEK PAS CLOUDY    41  23  48 SW15G22   30.43R
$$

COZ009-010-012-014-032>034-037-058>063-290000-
...CENTRAL COLORADO...

CITY           SKY/WX    TMP DP  RH WIND       PRES   REMARKS
ASPEN          FAIR      57  31  37 E6G20     30.17R
BUENA VISTA    FAIR      65  16  15 NW5       30.14S
COPPER MTN     NOT AVBL
BERTHOUD PASS  PTSUNNY   30  21  69 N10G21    30.39R HAZE    WCI  21
COTTONWOOD PAS FAIR      59  10  14 W7G18     30.25S
GUNNISON       FAIR      63  27  25 N16       30.16S
KREMMLING      FAIR      59  34  38 E6        30.18S
LEADVILLE      PTSUNNY   48  23  37 NW16G25   30.27R
SALIDA         FAIR      66  29  25 S12G22    30.19S
SUNLIGHT       CLOUDY    45  30  57 W5        30.35S
WILKERSON PASS PTSUNNY   45  21  39 SW3       30.35S
$$

COZ069>075-290000-
...SAN LUIS VALLEY/SANGRE DE CRISTO MOUNTAINS...

CITY           SKY/WX    TMP DP  RH WIND       PRES   REMARKS
ALAMOSA        FAIR      61  32  33 NE3       30.16R
LA VETA PASS   PTSUNNY   46  27  46 SW5G16    30.30R
SAGUACHE       LGT RAIN  59  32  36 W13G18    30.19R
$$

COZ035-036-038>040-290000-
...NORTHERN COLORADO FRONT RANGE...

CITY           SKY/WX    TMP DP  RH WIND       PRES   REMARKS
DENVER INTL AP TSTM      65  41  41 N13G24    30.04R
DMNS CITY PARK   N/A     69  36  29 NE12G23   30.01S
AURORA         MOSUNNY   63  45  51 NE13      30.05R
FRONT RANGE AP TSTM      55  41  58 N7G22     30.08R
ERIE MUNI ARPT FAIR      68  40  36 E13       30.01S
BOULDER MUN AP FAIR      68  34  28 E3        30.01S
CENTENNIAL     LGT RAIN  65  38  36 S14       30.04R
BROOMFIELD     NOT AVBL
FORT COLLINS   FAIR      72  39  30 CALM      30.01R
LONGMONT       FAIR      72  35  25 S5        30.01S
$$

COZ041-046-047-076>085-087-088-290000-
...PIKES PEAK/PALMER DIVIDE AND SOUTHERN FOOTHILLS...

CITY           SKY/WX    TMP DP  RH WIND       PRES   REMARKS
COLO. SPRINGS  FAIR      67  38  34 S14       30.09F
A. F. ACADEMY  FAIR      64  36  34 S9        30.08F
SCHRIEVER AFB  NOT AVBL
ELLICOTT       FAIR     N/A N/A N/A SW10      30.08S
FALCON         FAIR      64  33  31 S12       30.13F
FORT CARSON    FAIR      67  42  40 S8        30.07F
LIMON          FAIR      62  44  51 S15       30.08R
MONUMENT HILL  FAIR      61  39  44 S17G23    30.12F
TRINIDAD       PTSUNNY   67  36  31 SE12      30.07R
$$

COZ042>045-048>051-090-091-290000-
...NORTHEAST COLORADO...

CITY           SKY/WX    TMP DP  RH WIND       PRES   REMARKS
GREELEY ARPT   FAIR      73  37  27 CALM      30.01R
AKRON          FAIR      72  37  28 VRB3      30.01S
BURLINGTON     FAIR      74  40  29 VRB7      30.01S
WRAY           NOT AVBL
STERLING       FAIR      70  45  40 CALM      29.98S
HOLYOKE        FAIR      73  50  43 W9G17     29.97S
FORT MORGAN    FAIR      68  45  42 N8        30.02R
$$

COZ086-089-092>099-290000-
...SOUTHEAST COLORADO...

CITY           SKY/WX    TMP DP  RH WIND       PRES   REMARKS
PUEBLO         FAIR      74  39  28 E8        30.01R
LA JUNTA       FAIR      79  37  22 N9        29.99F
LAMAR          FAIR      79  46  31 E10G20    29.96F
SPRINGFIELD      N/A     73  40  30 S9G23     30.00F
$$




USA.gov is the U.S. government's official web portal to all federal, state and local government web resources and services.